Theta_e
299 299 299 300 300 301 302 302 301 301 302 304 306 306 306 306 307 306 304 306 301 295 297 299 298 296 296 296 291 294 293 294 294 289 289 288 287 291 290 293 290 288 286 286 287 284 282 301 300 294 299 301 299 298
299 300 299 299 299 300 300 302 302 301 301 303 304 306 305 305 306 307 301 305 306 298 297 302 302 303 302 300 297 295 293 294 295 292 292 292 289 291 290 286 296 288 293 290 292 291 298 300 300 300 302 300 298 298
299 299 300 300 300 300 300 301 302 301 301 302 303 305 306 305 306 306 303 304 303 297 297 297 297 302 304 303 305 295 297 298 298 298 294 292 287 291 287 289 292 295 298 294 294 298 298 298 298 299 300 298 299 298
298 299 300 300 300 300 301 302 302 302 303 302 302 304 305 305 306 306 303 305 302 298 290 294 304 300 304 304 303 303 301 301 301 299 295 292 289 292 290 292 292 297 296 293 293 298 299 299 301 300 298 298 296 296
299 299 299 299 300 301 302 301 301 302 303 303 303 304 305 305 305 306 305 306 305 297 289 291 299 301 303 303 302 302 300 299 297 294 293 290 294 293 293 293 290 296 296 291 293 300 300 300 300 301 298 296 296 296
299 299 299 300 300 301 301 301 302 302 303 303 303 304 305 304 305 302 297 305 307 305 295 289 298 298 301 301 300 299 299 298 297 295 293 295 296 295 287 287 294 297 299 302 298 303 301 302 301 301 298 297 296 296
299 299 300 300 300 301 301 301 302 303 303 303 303 304 304 304 303 297 295 301 305 303 294 290 291 298 300 300 300 298 299 296 297 295 293 292 293 295 290 286 295 298 300 300 302 300 297 298 297 300 299 297 298 297
299 299 300 300 301 301 301 301 302 303 303 304 304 303 304 304 303 299 303 305 304 298 298 289 289 293 299 294 292 298 294 295 294 292 293 290 294 293 287 293 296 297 298 300 300 301 301 299 299 298 298 297 296 293
300 300 301 301 301 301 301 301 302 303 304 303 303 303 301 299 295 298 306 305 303 297 289 289 288 286 298 294 295 293 294 287 294 289 290 291 290 286 291 293 295 297 298 297 298 298 298 297 296 296 296 295 294 294
300 300 301 301 301 301 302 302 302 303 303 302 300 295 290 297 306 305 298 294 293 293 293 289 291 289 294 292 290 291 292 288 285 288 292 288 287 294 296 298 299 299 299 299 296 294 295 294 294 295 294 294 294 294
299 300 300 301 301 301 302 302 303 302 301 297 293 291 297 303 297 293 288 288 288 286 289 290 290 289 296 289 288 291 287 289 284 288 287 287 287 294 297 297 300 301 299 299 301 299 299 297 295 293 293 294 293 293
299 300 300 300 301 302 302 302 302 299 297 297 296 299 297 293 290 287 286 288 286 285 288 288 290 292 294 297 290 290 287 288 283 291 287 283 292 297 298 298 297 298 298 298 299 297 297 296 295 294 292 292 292 293
299 300 300 301 303 303 303 303 301 302 301 297 291 289 289 288 283 283 281 284 285 288 288 289 289 292 293 294 289 288 284 285 293 287 286 290 296 297 298 296 295 295 297 298 297 297 296 294 294 293 292 292 291 291
299 300 301 301 302 303 302 302 302 301 297 289 287 283 285 283 285 287 288 289 292 292 291 292 290 290 292 288 289 283 287 288 284 283 286 295 296 297 298 297 296 295 296 296 295 294 294 293 293 293 293 291 290 289
299 300 301 299 303 303 302 303 302 301 295 287 287 284 285 289 291 292 293 294 294 294 293 291 289 290 287 286 286 286 283 283 284 286 293 295 294 294 293 295 295 295 295 294 294 293 293 293 293 293 293 291 290 290
299 300 298 299 302 303 303 302 301 299 295 291 289 287 289 288 290 293 294 292 296 295 295 292 287 284 285 285 284 282 282 283 288 293 295 293 292 293 294 295 295 295 294 293 292 292 292 291 292 292 290 290 290 290
298 296 299 299 301 302 302 299 298 293 291 289 288 291 289 287 289 293 296 295 298 294 289 290 284 284 289 284 283 288 287 292 294 295 294 293 293 294 294 294 294 293 293 292 292 292 290 292 292 290 288 289 289 289
294 297 298 299 300 300 298 298 293 290 287 288 286 287 291 294 294 296 297 296 296 294 293 289 292 286 286 285 287 290 293 292 295 293 291 292 294 294 294 294 294 294 293 293 292 291 290 291 291 289 289 289 288 289
297 298 299 300 300 297 292 292 294 286 288 291 291 292 293 294 297 298 298 298 299 298 294 292 289 288 290 292 291 293 294 293 292 293 293 294 295 294 294 294 293 293 292 292 292 290 291 292 291 290 289 289 287 287
299 300 301 301 301 294 291 290 295 289 287 290 293 293 295 294 296 297 297 297 296 294 291 290 291 293 294 296 297 297 294 293 292 290 291 293 294 294 293 293 292 292 291 291 291 289 289 289 291 290 289 288 287 286
298 300 302 302 297 296 293 292 290 290 291 291 294 294 294 295 295 295 294 298 294 293 291 294 296 297 301 301 301 298 297 297 295 295 293 290 293 292 292 292 292 292 291 290 290 288 289 288 289 290 288 287 287 287
296 300 298 298 293 294 291 294 292 294 292 292 293 294 292 292 292 294 297 294 293 294 296 297 298 300 299 300 298 298 297 297 296 293 291 291 290 290 290 291 291 290 290 290 290 289 288 288 289 289 288 287 287 287
297 298 296 294 289 288 289 296 290 292 288 291 293 290 291 291 293 294 292 294 295 297 298 298 299 301 300 298 298 296 297 297 295 295 293 293 293 293 291 291 292 291 289 289 290 289 288 286 287 288 287 287 286 285
299 294 289 288 288 286 292 290 292 291 291 291 290 287 289 292 295 292 289 293 295 295 297 298 301 297 297 297 295 295 295 297 295 294 294 293 291 291 292 291 292 292 291 289 289 288 288 288 286 287 287 286 285 285
287 287 288 285 290 288 287 288 288 288 287 289 288 289 290 293 288 287 288 291 295 297 298 299 300 297 295 296 295 295 295 296 294 292 293 295 292 291 291 291 291 290 290 288 287 287 287 287 287 286 286 285 285 283
284 288 286 287 288 286 288 285 285 285 287 287 288 292 292 289 287 286 291 295 297 297 298 299 297 293 294 296 294 294 294 296 296 293 293 294 294 293 291 289 288 287 291 291 289 287 286 286 286 285 285 284 282 283
283 285 289 293 291 291 289 290 290 289 286 287 289 289 289 285 286 291 297 299 298 299 300 300 300 297 295 295 295 295 295 296 296 295 295 295 295 296 295 292 291 292 291 290 289 288 286 286 286 286 285 285 284 284
287 288 286 289 290 291 289 289 288 287 289 292 291 288 287 287 288 294 297 299 300 299 298 297 296 296 295 295 293 292 290 290 290 290 290 290 290 292 293 293 292 286 290 290 289 289 288 287 286 286 285 284 283 283
286 290 290 288 289 289 289 289 289 292 294 292 290 289 290 295 298 298 299 298 299 301 297 297 296 293 291 291 292 292 291 292 291 290 290 289 289 288 290 290 289 290 289 287 283 286 287 287 286 285 284 283 283 282
287 291 289 290 288 287 291 294 294 297 296 295 295 294 294 295 297 299 299 298 299 300 301 298 294 293 291 290 289 290 292 294 295 295 292 290 291 288 289 289 288 288 288 287 285 283 281 283 282 283 282 282 282 281
292 291 289 289 289 292 294 296 296 295 293 292 293 292 292 295 298 299 299 299 299 300 298 296 294 292 291 290 291 290 290 293 294 293 292 290 288 288 288 288 287 287 287 286 285 285 284 284 283 282 281 280 280 279
291 289 289 287 288 293 294 293 290 290 290 289 290 291 291 293 291 296 300 300 299 298 294 296 295 292 294 295 294 295 290 293 292 290 289 288 288 288 287 287 287 287 287 286 286 285 284 283 282 282 280 279 279 279
290 291 291 290 288 288 290 290 287 286 288 286 288 290 290 291 289 296 300 300 299 299 299 300 300 296 295 295 296 295 292 294 288 285 285 285 285 286 287 287 287 287 286 286 285 284 283 283 282 281 280 279 278 277
Wind_Speed
23 22 22 22 22 23 23 22 21 21 22 23 22 19 16 16 16 7 3 4 2 2 6 3 4 4 3 0 0 3 4 1 1 2 2 2 2 2 2 6 6 6 7 5 5 5 8 1 3 5 5 9 9 8
22 23 23 22 22 22 22 23 20 20 21 21 22 19 16 16 15 12 2 2 3 3 3 1 4 12 6 4 1 1 2 1 2 2 1 2 2 0 1 3 3 4 3 5 6 2 3 2 3 4 4 9 6 8
23 23 24 23 22 21 21 23 21 21 21 21 21 22 18 14 15 9 3 1 1 2 2 3 6 1 2 7 4 1 1 2 2 2 2 2 3 1 2 3 3 4 2 3 5 5 6 8 8 9 8 8 9 9
23 24 25 23 21 21 22 21 22 22 21 21 20 20 17 12 12 7 2 1 0 1 1 2 3 3 6 2 5 2 4 4 3 1 2 1 2 1 1 3 3 2 6 4 2 5 7 6 6 8 9 11 11 9
24 25 22 21 22 22 22 21 22 22 21 19 19 19 16 10 10 6 3 2 1 2 1 3 4 4 4 3 6 7 6 5 1 2 1 2 1 2 1 2 6 5 4 3 3 6 3 5 9 13 14 11 10 11
24 24 23 22 22 22 20 21 22 22 23 23 17 18 12 8 7 2 2 2 4 2 1 1 1 3 5 8 10 8 5 4 2 1 1 1 1 1 1 3 5 7 6 5 2 6 6 10 12 12 13 11 10 9
25 23 24 23 24 22 21 22 23 22 25 12 13 12 7 5 1 3 1 2 2 2 1 1 1 2 4 2 3 3 4 2 1 1 1 1 1 3 2 4 1 1 4 4 7 13 9 10 9 11 13 12 11 11
23 23 22 23 23 21 22 22 22 20 23 13 11 6 6 5 4 3 1 5 2 2 1 1 1 2 4 2 3 0 2 1 1 1 2 2 1 2 6 10 10 3 5 7 11 3 10 14 14 13 12 12 12 10
23 22 22 22 22 20 21 21 20 21 21 4 3 4 2 2 2 2 6 6 2 2 1 1 1 0 2 2 2 2 0 1 1 1 2 2 3 6 8 5 6 9 4 11 10 14 16 15 14 12 12 10 10 8
21 22 23 21 21 21 20 19 21 22 6 1 1 1 1 1 3 10 1 1 1 1 0 1 1 2 1 1 2 2 1 1 2 3 2 3 5 13 9 6 5 7 11 15 16 11 13 13 12 12 11 9 8 7
22 23 24 24 23 21 20 19 20 4 1 0 1 0 2 5 2 2 1 1 1 1 1 1 2 1 2 1 2 1 2 1 2 3 3 2 4 3 4 11 4 11 14 10 8 12 11 14 14 13 11 10 9 8
23 24 25 25 24 21 20 18 5 1 1 1 1 1 2 2 1 1 2 2 2 1 3 3 2 1 2 2 1 2 1 2 3 5 2 3 3 5 5 11 11 13 12 11 14 16 14 14 13 13 12 11 10 8
24 24 26 26 22 15 12 2 5 5 3 2 2 1 1 1 2 3 4 3 2 4 4 3 3 1 2 2 2 1 3 2 1 3 3 3 3 4 11 13 13 9 11 15 15 16 16 15 14 14 12 10 10 8
23 24 24 21 24 9 5 3 2 2 0 1 1 1 2 2 2 1 1 1 2 3 6 5 3 1 2 1 1 3 2 1 3 3 3 1 7 10 11 11 14 11 13 15 16 16 16 14 12 12 12 10 9 8
22 23 17 17 17 8 5 4 1 1 0 1 1 2 3 1 2 3 4 3 3 6 6 5 3 1 2 3 2 1 3 4 4 3 1 5 7 9 9 11 13 14 13 13 14 12 12 12 12 11 11 10 9 9
21 16 5 23 20 9 5 4 0 1 2 2 2 2 1 1 2 1 2 4 2 4 3 2 2 2 2 1 3 5 3 5 1 3 2 9 10 10 7 11 12 12 13 12 12 12 12 12 13 13 12 10 9 9
15 2 15 20 20 11 7 2 2 2 2 3 2 2 2 2 3 2 2 3 5 3 1 2 3 2 3 3 4 4 4 1 3 1 5 10 15 13 11 12 12 13 13 13 12 11 12 12 13 13 12 9 9 9
3 8 17 17 13 4 2 2 2 2 2 2 3 3 3 3 3 2 2 3 3 2 2 1 1 2 2 3 2 2 3 2 2 5 7 6 9 11 11 13 12 13 12 11 11 12 12 12 11 9 11 10 9 8
9 11 17 15 5 3 2 0 1 2 2 3 3 3 3 3 1 0 3 3 1 2 1 2 3 3 1 0 2 5 2 2 6 8 9 6 5 11 12 12 12 12 12 11 12 8 7 8 9 9 8 6 6 5
15 12 8 4 1 1 2 1 0 2 2 3 3 3 3 1 1 1 3 1 2 1 2 2 2 0 2 3 3 2 5 7 8 10 7 5 6 10 11 11 9 11 9 10 9 8 8 8 7 7 6 6 6 6
7 3 5 1 1 1 2 2 2 2 3 3 4 3 1 1 1 1 2 2 1 2 2 3 4 4 2 2 0 5 8 9 5 6 10 8 6 8 9 9 10 8 8 7 8 7 6 7 7 7 7 6 6 6
3 8 1 1 1 1 2 3 2 2 2 2 3 2 2 1 1 0 1 2 2 2 2 2 2 1 2 2 4 7 8 10 10 8 9 10 7 8 8 8 8 7 7 7 7 8 7 7 8 8 8 7 6 6
6 2 2 1 2 1 4 1 3 2 2 1 1 2 1 0 0 1 2 2 2 1 2 2 1 1 2 3 7 9 8 10 7 7 6 7 7 7 7 7 6 8 7 5 6 7 7 8 7 8 8 7 6 6
4 2 2 2 2 3 3 2 1 2 3 2 1 1 1 2 0 1 2 2 1 1 2 1 1 2 3 5 4 6 6 5 7 6 6 9 7 6 5 6 5 5 6 8 7 7 8 7 9 8 7 7 6 5
2 2 2 3 2 3 3 1 1 1 3 1 2 1 2 1 1 1 2 2 2 2 1 2 3 3 0 2 4 5 6 8 8 8 5 6 8 7 6 5 4 5 7 9 8 9 8 8 7 8 7 7 7 6
3 3 3 2 1 3 1 2 2 2 3 2 2 1 1 1 2 1 1 1 2 1 1 3 3 2 3 3 6 6 7 6 8 7 5 6 8 9 9 9 7 5 6 6 9 11 10 9 9 10 7 8 6 6
3 3 3 3 2 2 2 2 3 2 3 2 1 2 2 2 2 1 2 2 2 2 1 1 2 3 5 6 4 5 6 5 4 6 6 5 3 3 6 8 10 7 9 10 9 10 11 10 9 8 8 6 6 5
3 3 3 1 2 2 2 2 2 2 1 2 3 1 2 1 1 1 1 1 2 3 3 3 5 3 3 5 6 8 8 8 10 10 9 7 5 4 4 4 6 13 9 9 9 9 9 9 9 8 8 7 6 5
3 2 2 3 3 3 4 3 1 2 2 2 1 1 2 4 2 2 2 1 1 3 2 2 3 4 5 6 5 4 8 9 11 11 9 7 5 4 4 7 9 8 8 9 7 7 11 9 9 8 8 7 6 5
4 3 3 3 3 3 1 2 1 0 1 1 1 2 2 2 2 2 3 2 1 2 3 4 4 4 5 6 6 6 3 2 2 6 8 8 6 8 7 8 8 8 8 10 11 12 12 12 10 9 8 6 5 5
2 2 3 3 2 1 2 2 1 1 1 1 1 2 3 3 3 3 4 2 2 3 4 5 4 3 5 7 7 8 6 2 5 7 6 7 9 9 8 9 8 9 9 11 11 10 10 9 7 8 8 7 7 5
2 4 2 3 1 1 2 1 2 2 2 2 1 1 2 2 3 1 1 2 3 4 4 6 6 5 4 6 6 4 4 8 7 6 10 8 9 10 10 9 9 9 10 10 10 10 11 10 8 7 7 7 7 5
2 1 2 1 0 1 0 2 1 3 2 2 2 2 2 2 3 1 1 1 2 2 2 4 5 6 8 6 6 5 4 7 11 9 9 10 12 11 9 8 9 10 12 10 9 10 10 10 8 8 7 6 6 5
Wind_Direction
324 323 324 325 324 321 324 319 317 323 324 325 323 323 330 328 333 328 246 188 229 252 284 291 340 326 320 189 294 132 219 158 91 112 159 145 160 85 295 137 163 164 159 176 189 209 247 83 167 237 86 119 121 111
319 322 322 321 320 315 316 317 311 312 316 322 322 315 317 320 322 327 282 182 217 224 281 233 269 267 271 317 189 40 60 129 88 102 122 118 119 108 247 177 76 180 179 170 201 199 64 33 70 91 123 128 115 114
318 318 319 317 317 316 314 311 313 314 312 313 315 315 303 307 311 317 299 276 184 275 282 289 257 15 296 232 227 246 189 117 117 345 104 88 103 209 200 193 165 195 174 231 165 172 131 115 99 88 77 98 106 110
316 315 316 320 316 312 313 310 316 314 310 306 307 306 303 308 317 311 276 244 246 334 253 300 8 308 324 209 184 164 120 99 87 19 75 88 133 201 304 337 284 92 145 180 172 125 142 180 167 126 111 119 115 113
314 317 319 315 311 312 310 314 313 310 309 297 300 299 305 305 320 306 247 224 189 240 185 286 326 333 0 153 104 110 109 100 70 97 96 148 129 197 71 271 244 203 185 185 131 196 196 170 148 140 141 140 130 122
314 319 314 314 315 312 314 319 317 315 308 300 287 295 290 308 336 305 251 172 201 229 260 288 257 306 52 89 89 74 70 68 60 84 105 143 353 220 213 248 253 221 229 247 55 127 95 117 131 143 137 135 126 120
316 318 314 316 318 315 313 318 315 318 320 300 282 295 278 289 274 247 354 328 305 145 207 295 291 129 114 66 54 58 46 74 52 89 75 325 225 192 224 239 186 212 234 201 157 123 102 142 138 134 132 128 119 114
323 318 312 312 314 313 315 315 315 321 322 300 296 285 290 283 267 274 251 214 172 91 249 230 269 235 161 132 109 69 87 57 68 138 147 221 226 197 250 235 241 300 83 129 157 95 129 123 124 122 126 131 130 128
316 317 319 315 312 313 315 315 318 318 316 285 324 307 319 201 208 222 166 117 64 84 164 248 246 78 97 82 83 74 135 125 96 211 220 190 196 224 239 251 228 205 176 136 115 120 127 129 129 132 133 133 135 142
321 322 317 318 319 317 317 318 314 316 315 56 35 236 242 245 182 115 79 97 66 67 123 256 48 154 94 75 101 123 14 173 213 199 168 231 255 253 252 240 249 176 144 140 122 127 135 132 135 137 135 131 124 119
324 322 323 324 324 322 319 316 315 95 347 89 277 301 307 324 63 33 83 143 127 191 184 90 228 85 39 116 114 321 150 160 252 146 233 234 254 252 246 205 228 165 155 159 155 148 145 137 138 133 126 120 117 116
321 321 324 325 321 315 312 314 129 61 44 354 336 333 6 51 136 154 131 141 223 183 156 164 154 325 108 105 107 158 244 174 259 133 234 241 253 296 179 147 132 137 135 115 131 128 128 130 132 128 123 118 112 107
323 323 326 324 327 316 321 81 138 102 113 26 22 337 239 74 182 217 178 164 205 166 159 162 134 96 137 63 73 170 226 245 139 212 241 229 61 112 140 129 114 103 112 123 124 123 125 127 130 128 121 117 111 105
323 323 328 341 336 337 31 112 152 159 311 353 314 157 260 175 239 246 187 41 93 132 143 136 103 102 97 129 125 210 210 263 248 251 235 147 141 139 135 128 124 118 123 128 127 129 133 135 129 127 126 122 114 103
322 326 336 342 350 22 10 291 232 258 261 303 262 268 225 300 238 248 242 143 86 141 131 119 105 122 143 164 210 279 224 235 220 267 92 130 121 127 120 127 128 129 130 124 126 129 129 129 126 119 123 115 109 104
324 326 354 348 351 352 18 33 52 288 251 286 262 290 316 243 255 215 126 110 107 130 103 101 114 179 157 175 194 207 230 229 285 321 110 127 123 117 139 129 128 129 123 123 126 129 125 122 120 120 116 109 104 98
324 331 339 336 341 331 353 357 312 278 326 301 303 320 319 244 270 304 99 128 145 136 142 155 195 189 126 207 213 213 240 341 326 161 125 139 141 162 135 127 128 125 125 126 129 125 116 119 124 123 115 109 100 92
267 300 317 325 332 312 324 356 306 316 318 286 307 300 263 256 305 70 80 138 156 171 154 245 50 194 233 246 211 329 327 28 62 104 107 100 137 135 132 129 129 127 124 126 130 127 129 132 128 120 121 118 108 102
294 302 306 309 303 305 308 290 335 318 294 295 276 249 269 283 310 316 133 142 83 108 152 233 247 249 265 346 230 271 187 159 115 113 112 143 138 129 126 122 123 124 124 128 137 136 134 133 129 133 130 132 110 109
308 305 306 297 281 277 276 274 287 272 289 325 291 300 322 354 34 87 150 150 164 184 209 241 264 251 244 276 225 248 119 119 122 124 146 147 124 122 130 131 128 126 118 115 116 123 123 117 123 132 129 124 121 112
315 334 329 333 276 262 282 288 245 232 294 282 305 313 304 220 188 181 190 192 223 216 214 241 266 274 270 16 11 137 137 144 122 144 138 132 131 126 121 122 130 133 133 137 136 129 133 132 136 134 135 116 107 100
275 323 282 270 281 263 256 229 260 303 249 272 297 295 285 316 4 45 127 207 234 253 216 233 303 312 334 36 133 146 128 119 116 108 96 124 127 123 133 140 143 141 143 142 141 141 127 128 133 133 127 120 118 112
291 225 266 255 281 249 269 275 258 201 271 261 240 271 314 330 254 202 247 228 276 268 281 268 257 192 44 67 122 129 137 135 136 131 132 122 126 134 135 146 148 143 138 129 129 132 127 124 126 130 128 132 128 125
258 262 269 238 224 273 271 261 235 280 287 256 289 286 327 345 292 266 272 254 270 283 267 240 187 115 89 115 144 151 144 135 126 121 138 137 134 134 145 145 143 135 133 132 133 128 134 135 132 143 145 145 144 135
257 207 242 247 224 250 270 237 332 273 269 298 275 220 159 216 267 242 268 304 298 294 313 148 162 128 104 111 140 135 144 152 145 138 144 135 119 120 118 119 123 127 146 138 141 142 141 147 148 150 150 152 150 143
268 198 206 247 224 236 273 253 223 271 280 272 241 83 100 266 265 260 278 305 292 327 349 169 105 115 164 157 155 156 153 151 141 139 150 163 163 158 156 156 154 155 179 158 149 148 148 153 157 157 150 143 128 145
268 259 220 223 257 266 260 238 233 236 259 280 8 197 209 230 245 358 340 6 321 358 288 51 155 173 169 153 129 118 125 132 130 134 129 149 151 172 173 170 179 163 161 158 154 154 153 156 159 163 153 147 153 148
263 284 262 346 241 242 277 264 240 236 327 357 293 309 319 356 328 312 265 315 345 66 81 58 40 42 113 133 130 128 107 108 104 105 101 84 72 95 115 104 123 132 143 151 148 145 151 154 152 150 153 152 142 134
248 244 229 245 221 233 226 228 190 201 210 197 274 231 215 206 225 231 250 197 269 160 88 88 47 80 92 102 108 123 144 147 147 155 154 143 147 112 107 122 134 129 126 117 80 118 139 137 138 139 135 131 127 130
248 198 245 235 218 236 191 215 268 73 162 274 291 280 251 252 260 258 252 255 194 196 159 166 174 181 153 150 140 141 155 198 216 163 159 169 158 135 142 138 132 128 128 126 120 114 108 113 115 120 129 136 136 143
270 206 238 246 280 351 353 330 303 308 298 268 236 254 276 309 287 234 223 227 204 153 141 154 171 176 158 154 165 159 153 136 123 115 110 120 133 139 139 135 132 132 134 136 139 143 142 144 145 147 149 148 151 168
223 228 251 202 217 312 336 340 343 308 327 306 280 274 272 263 262 268 105 184 172 191 196 184 179 171 161 169 171 185 148 139 139 134 138 137 133 133 132 131 132 134 136 138 142 146 151 146 148 153 155 159 164 163
243 258 277 145 161 314 210 266 332 313 280 276 263 252 266 265 270 337 29 289 277 229 200 189 173 151 172 166 147 121 142 113 110 112 114 120 127 129 132 132 134 138 137 138 141 147 149 148 145 148 151 155 157 159